Regional Weather Roundup
Issued by NWS

Home | Current Version | Previous Version | Graphics & Text | Print | Product List | Glossary On
Versions: 1 2 3 4 5 6 7 8 9 10 11 12 13 14 15 16 17 18 19 20 21 22 23 24 25 26 27 28 29 30 31 32 33 34 35 36 37 38 39 40 41 42 43 44 45 46 47 48 49 50
000
ASUS43 KMKX 021259
RWRWI

WISCONSIN REGIONAL WEATHER ROUNDUP
NATIONAL WEATHER SERVICE MILWAUKEE/SULLIVAN WI
700 AM CST MON MAR 02 2015

NOTE: "FAIR" INDICATES FEW OR NO CLOUDS BELOW 12,000 FEET WITH NO
SIGNIFICANT WEATHER AND/OR OBSTRUCTIONS TO VISIBILITY.

WIZ001-002-006>008-014>016-023>028-021400-
NORTHWEST WISCONSIN

CITY           SKY/WX    TMP DP  RH WIND       PRES   REMARKS
SUPERIOR ARPT  FAIR       4   1  87 SW5       30.42R WCI  -5
ASHLAND        CLEAR      5   1  83 SW8       30.41R WCI  -8
HAYWARD        PTCLDY    -7 -12  79 CALM      30.39S
SIREN          MOCLDY    -3  -8  77 CALM      30.42S
CUMBERLAND     PTCLDY    -4  -8  84 CALM      30.40F FOG
RICE LAKE      PTCLDY    -2  -6  84 CALM      30.44S
CHETEK         PTCLDY     2  -1  88 CALM      30.43F
LADYSMITH      PTCLDY     2  -1  86 S3        30.43R
EAU CLAIRE     NOT AVBL
MENOMONIE      PTCLDY     5   1  83 NE3       30.45F
NEW RICHMOND   PTCLDY     1  -3  85 CALM      30.43F
OSCEOLA        PTCLDY     1  -3  85 CALM      30.46F
$$

WIZ003>005-009-010-017-018-021400-
NORTH CENTRAL WISCONSIN

CITY           SKY/WX    TMP DP  RH WIND       PRES   REMARKS
MANITOWISH WTR CLEAR      5   2  87 SW5       30.33R WCI  -4
ARBOR VITAE    PTCLDY    11   6  79 W3        30.34R
WOODRUFF       PTCLDY    11   6  79 W3        30.34R
RHINELANDER    MOCLDY     8   3  80 W7        30.34R WCI  -3
EAGLE RIVER    CLOUDY    12   4  69 W7        30.31R WCI   2
LAND O LAKES   CLOUDY    15   6  67 NW6       30.31R WCI   6
PHILLIPS       MOCLDY     0  -2  91 CALM      30.36S
TOMAHAWK       PTCLDY     4   1  86 CALM      30.37R
MEDFORD        FAIR       5   2  88 W6        30.38S WCI  -6
MERRILL        CLEAR      6   2  84 W3        30.38R
$$

WIZ029-030-035-036-043>047-021400-
CENTRAL WISCONSIN

CITY           SKY/WX    TMP DP  RH WIND       PRES   REMARKS
WAUSAU         CLEAR      8   3  80 N3        30.39R
MOSINEE          N/A      9   5  85 NW5       30.41R WCI   0
MARSHFIELD     PTCLDY     1  -4  79 NW7       30.41R WCI -12
STEVENS POINT  CLEAR      8   4  82 NW3       30.42S
WAUPACA        CLEAR     13   7  75 W6        30.44R WCI   4
WAUTOMA        NOT AVBL
WISC RAPIDS    FAIR       8   3  80 NW6       30.44S WCI  -2
CAMP DOUGLAS   NOT AVBL
$$

WIZ011>013-019>022-031-037>040-048>050-021400-
NORTHEAST WISCONSIN

CITY           SKY/WX    TMP DP  RH WIND       PRES   REMARKS
ANTIGO         CLEAR     -1  -3  91 W5        30.36R WCI -11
SHAWANO        CLEAR     12   6  76 W5        30.42R WCI   5
OCONTO         CLEAR      9   5  83 W5        30.41R WCI   1
STURGEON BAY   CLEAR     12   5  73 W7        30.42R WCI   2
GREEN BAY      CLEAR     12   6  77 W8        30.43R WCI   0
MANITOWOC      NOT AVBL
APPLETON       NOT AVBL
CLINTONVILLE   CLEAR     10   5  79 W9        30.43R WCI  -2
OSHKOSH        CLEAR     12   5  73 NW8       30.44R WCI   0
$$

WIZ032>034-041-042-053>061-021400-
SOUTHWEST WISCONSIN

CITY           SKY/WX    TMP DP  RH WIND       PRES   REMARKS
LA CROSSE      CLEAR     12   7  80 CALM      30.49R
SPARTA         PTCLDY    -3  -7  84 CALM      30.47R
VIROQUA        CLEAR      8   6  91 CALM      30.42S
BOSCOBEL       MOCLDY     1  -5  75 CALM      30.50S
PRAIRIE DU CHI PTCLDY     4   0  82 CALM      30.50R
PLATTEVILLE    PTCLDY     8   6  89 CALM      30.46S
$$

WIZ056-057-062-063-064-067-068-021400-
SOUTH CENTRAL WISCONSIN

CITY           SKY/WX    TMP DP  RH WIND       PRES   REMARKS
REEDSBURG      PTCLDY     3   0  85 CALM      30.45R
BARABOO/DELLS  PTCLDY     9   6  84 CALM      30.44R
LONE ROCK      NOT AVBL
MINERAL POINT  CLEAR     10   7  85 W3        30.45R
MADISON        PTCLDY     7   3  84 W3        30.46R
MIDDLETON      PTCLDY     9   5  84 CALM      30.46R
WATERTOWN      PTCLDY     4   0  85 CALM      30.44R
MONROE         PTCLDY    12  10  92 W13       30.45R WCI  -3
JANESVILLE     NOT AVBL
$$

WIZ051-052-058>065-066-070>072-021400-
SOUTHEAST WISCONSIN

CITY           SKY/WX    TMP DP  RH WIND       PRES   REMARKS
MILWAUKEE      PTCLDY    18   8  65 NW7       30.44R WCI   9
WAUKESHA       CLEAR     12   7  79 W7        30.44R WCI   2
MILWAUKEE/TIMM CLEAR     12   7  79 W6        30.45R WCI   3
RACINE         PTCLDY    13   6  74 NW8       30.45S WCI   2
BURLINGTON     MOCLDY     4   1  87 S6        30.43S WCI  -6
KENOSHA        MOCLDY    10   6  84 W6        30.44R WCI   0
FOND DU LAC    CLEAR     12   5  73 NW9       30.44R WCI   0
SHEBOYGAN      CLEAR     13   6  74 NW6       30.43R WCI   4
WEST BEND      PTCLDY    14   9  79 W9        30.42R WCI   2
JUNEAU         PTCLDY    11   7  85 NW3       30.44R
$$

LSZ147-162-021400-
LAKE SUPERIOR

STATION/POSITION TIME  TEMP    WIND        PRES    WAVE
                       AIR SEA DIR/SP/G            HT/PER
                 (UTC) (F)     (DEG/KT/KT) (MB)    (FT/S)
DEVILS ISLAND    1200   16     270/  8/ 10 1030.2R
PORT WING        1200   10     190/  7/  9 1029.5R
SAXON HARBOR     1200   11     190/  5/  9 1029.5R
$$

LMZ867-665-643>646-021400-
LAKE MICHIGAN

STATION/POSITION TIME  TEMP    WIND        PRES    WAVE
                       AIR SEA DIR/SP/G            HT/PER
                 (UTC) (F)     (DEG/KT/KT) (MB)    (FT/S)
NORTHPORT PIER   1206   17     290/  7/ 15 1028.4R
SISTER BAY       1213   11     290/ 10/ 11   N/A
KEWAUNEE LAKESHO 1200   14     310/  3/  5 1028.4R
SHEBOYGAN LAKESH 1200   17     280/ 11/ 13 1031.1R
PORT WASHINGTON  1200   17     300/  5/  9 1030.8
MILWAUKEE LAKESH 1200   17     300/  7/ 10   N/A
KENOSHA   LAKESH 1200   16     290/ 11/ 14 1030.1F
$$

TC  - TEMPERATURE IN CELSIUS
VSB - VISIBILITY IN STATUTE MILES
WCI - WIND CHILL INDEX
HX  - HEAT INDEX



USA.gov is the U.S. government's official web portal to all federal, state and local government web resources and services.